This demonstration page uses our WeatherBlox Daily Observations layout. Learn more.

Left ArrowRight Arrow

Hourly Observations for February 8, 2022

Temp ( °F °C ) Dew Point ( °F °C ) Humidity (%) Winds ( mph kmh ) Pressure ( in mb ) Visibility ( mi km ) Precip ( " mm )
12:56 am 00:56 Clear 34 1 19 -7.5 53 53 Calm 30.00 1016 10 16 0.00 0.00
1:56 am 01:56 Clear 34 1.3 19 -7.2 54 54 Calm 29.98 1015 10 16 0.00 0.00
2:56 am 02:56 Clear 32 0 19 -7.5 57 57 Calm 29.97 1015 10 16 0.00 0.00
3:56 am 03:56 Clear 32 0.1 19 -7.4 57 57 Calm 29.94 1014 10 16 0.00 0.00
4:56 am 04:56 Clear 32 0.1 19 -7.2 58 58 SE 3 6 29.91 1013 10 16 0.00 0.00
5:56 am 05:56 Clear 31 -0.5 19 -7.1 61 61 Calm 29.89 1012 10 16 0.00 0.00
6:56 am 06:56 undefined 31 -0.7 20 -6.9 63 63 Calm 29.92 1013 10 16 0.00 0.00
7:56 am 07:56 Sunny 29 -1.5 19 -7.2 66 66 Calm 29.92 1013 10 16 0.00 0.00
8:56 am 08:56 Sunny 37 3 22 -5.7 53 53 W 7 11 29.92 1013 10 16 0.00 0.00
9:56 am 09:56 Sunny 44 6.4 20 -6.6 39 39 NW 14 22 29.93 1014 10 16 0.00 0.00
10:56 am 10:56 undefined 49 9.5 21 -6 33 33 NW 13 20 29.95 1014 10 16 0.00 0.00
11:56 am 11:56 Mostly Cloudy 54 12.3 24 -4.4 31 31 NNW 9 15 29.94 1014 10 16 0.00 0.00
12:56 pm 12:56 Partly Cloudy 58 14.3 26 -3.5 29 29 NW 14 22 29.93 1014 10 16 0.00 0.00
1:56 pm 13:56 Mostly Sunny 60 15.4 25 -4 26 26 NNW 18 30 29.93 1013 10 16 0.00 0.00
2:56 pm 14:56 Mostly Cloudy with Haze 59 15.2 22 -5.3 24 24 NW 23 37 29.93 1013 6 10 0.00 0.00
3:56 pm 15:56 Mostly Sunny 58 14.6 21 -6.3 23 23 NW 18 30 29.93 1014 8 13 0.00 0.00
4:56 pm 16:56 Sunny 57 14.1 20 -6.7 23 23 WNW 13 20 29.94 1014 9 14 0.00 0.00
5:56 pm 17:56 Clear 54 12.3 15 -9.4 21 21 WNW 10 17 29.95 1014 10 16 0.00 0.00
6:56 pm 18:56 Clear 47 8.6 15 -9.4 27 27 NW 7 11 29.96 1015 10 16 0.00 0.00
7:56 pm 19:56 Clear 45 7.1 14 -9.8 29 29 NW 7 11 29.98 1015 10 16 0.00 0.00
8:56 pm 20:56 Partly Cloudy 43 6.2 16 -8.9 33 33 WNW 7 11 29.98 1015 10 16 0.00 0.00
9:56 pm 21:56 Clear 40 4.6 16 -8.9 37 37 WNW 7 11 29.97 1015 10 16 0.00 0.00
10:56 pm 22:56 Partly Cloudy 39 3.8 16 -8.9 39 39 NW 7 11 29.95 1014 10 16 0.00 0.00
11:56 pm 23:56 Mostly Cloudy 38 3.4 15 -9.3 39 39 WNW 9 15 29.94 1014 10 16 0.00 0.00

Powered by AerisWeather